| time (UTC) | temp F | wind direction | speed MPH | gust MPH | rain 1hr in | rain 24hr in | rain mn in | humidity % | barometer mb |
| 20260904031531 | 78 | 5 | 0.0 | 1.0 | 0.00 | 0.00 | 0.00 | 33 | 1000.7 |
| 20260904030031 | 79 | 5 | 0.0 | 0.0 | 0.00 | 0.00 | 0.00 | 34 | 1000.4 |
| 20260904024531 | 81 | 5 | 0.0 | 1.0 | 0.00 | 0.00 | 0.00 | 33 | 1000.2 |
| 20260904023030 | 82 | 5 | 0.0 | 1.0 | 0.00 | 0.00 | 0.00 | 31 | 1000.0 |
| 20260904021543 | 82 | 5 | 0.0 | 1.0 | 0.00 | 0.00 | 0.00 | 31 | 999.7 |
| 20260904020029 | 84 | 5 | 0.0 | 1.0 | 0.00 | 0.00 | 0.00 | 30 | 999.6 |
| 20260904014536 | 86 | 5 | 0.0 | 0.0 | 0.00 | 0.00 | 0.00 | 26 | 999.4 |
| 20260904013028 | 89 | 5 | 0.0 | 0.0 | 0.00 | 0.00 | 0.00 | 25 | 999.4 |
| 20260904011540 | 93 | 5 | 0.0 | 0.0 | 0.00 | 0.00 | 0.00 | 23 | 999.2 |
| 20260904010027 | 95 | 5 | 0.0 | 0.0 | 0.00 | 0.00 | 0.00 | 22 | 999.2 |
| 20260904004526 | 97 | 5 | 0.0 | 0.0 | 0.00 | 0.00 | 0.00 | 21 | 999.1 |
| 20260904003026 | 98 | 5 | 0.0 | 1.0 | 0.00 | 0.00 | 0.00 | 19 | 999.2 |
| 20260904001523 | 98 | 5 | 0.0 | 1.0 | 0.00 | 0.00 | 0.00 | 20 | 999.3 |
| 20260904000023 | 99 | 5 | 0.0 | 1.0 | 0.00 | 0.00 | 0.00 | 19 | 999.4 |
| 20260903234522 | 99 | 5 | 0.0 | 0.0 | 0.00 | 0.00 | 0.00 | 19 | 999.4 |
| 20260903233021 | 100 | 5 | 0.0 | 1.0 | 0.00 | 0.00 | 0.00 | 17 | 999.4 |
| 20260903231519 | 99 | 5 | 0.0 | 1.0 | 0.00 | 0.00 | 0.00 | 19 | 999.5 |
| 20260903230019 | 100 | 5 | 0.0 | 2.0 | 0.00 | 0.00 | 0.00 | 18 | 999.6 |
| 20260903224526 | 100 | 5 | 0.0 | 1.0 | 0.00 | 0.00 | 0.00 | 17 | 999.7 |
| 20260903223014 | 99 | 5 | 0.0 | 3.0 | 0.00 | 0.00 | 0.00 | 20 | 999.7 |
| 20260903221513 | 99 | 5 | 0.0 | 1.0 | 0.00 | 0.00 | 0.00 | 17 | 999.9 |
| 20260903220018 | 98 | 5 | 0.0 | 3.0 | 0.00 | 0.00 | 0.00 | 21 | 1000.2 |
| 20260903214508 | 98 | 9 | 0.0 | 2.0 | 0.00 | 0.00 | 0.00 | 21 | 1000.4 |
| 20260903213004 | 98 | 5 | 0.0 | 2.0 | 0.00 | 0.00 | 0.00 | 21 | 1000.6 |
| 20260903211501 | 97 | 5 | 0.0 | 1.0 | 0.00 | 0.00 | 0.00 | 22 | 1000.9 |
| 20260903204556 | 96 | 360 | 0.0 | 2.0 | 0.00 | 0.00 | 0.00 | 23 | 1001.4 |
| 20260903203053 | 96 | 334 | 0.0 | 1.0 | 0.00 | 0.00 | 0.00 | 23 | 1001.6 |
| 20260903201550 | 95 | 326 | 0.0 | 2.0 | 0.00 | 0.00 | 0.00 | 21 | 1001.8 |
| 20260903200047 | 94 | 305 | 0.0 | 2.0 | 0.00 | 0.00 | 0.00 | 24 | 1002.0 |
| 20260903194549 | 93 | 302 | 0.0 | 3.0 | 0.00 | 0.00 | 0.00 | 23 | 1002.1 |
| 20260903193050 | 93 | 349 | 1.0 | 3.0 | 0.00 | 0.00 | 0.00 | 22 | 1002.4 |
| 20260903191538 | 93 | 349 | 0.0 | 3.0 | 0.00 | 0.00 | 0.00 | 24 | 1002.7 |
| 20260903190036 | 92 | 350 | 0.0 | 1.0 | 0.00 | 0.00 | 0.00 | 26 | 1002.9 |
| 20260903184533 | 92 | 355 | 0.0 | 1.0 | 0.00 | 0.00 | 0.00 | 24 | 1003.1 |
| 20260903183030 | 91 | 355 | 0.0 | 1.0 | 0.00 | 0.00 | 0.00 | 27 | 1003.4 |
| 20260903181526 | 90 | 355 | 0.0 | 2.0 | 0.00 | 0.00 | 0.00 | 30 | 1003.6 |
| 20260903180023 | 89 | 355 | 0.0 | 2.0 | 0.00 | 0.00 | 0.00 | 26 | 1003.8 |
| 20260903174521 | 87 | 355 | 0.0 | 1.0 | 0.00 | 0.00 | 0.00 | 31 | 1004.1 |
| 20260903173024 | 86 | 350 | 0.0 | 1.0 | 0.00 | 0.00 | 0.00 | 30 | 1004.1 |
| 20260903171512 | 85 | 350 | 0.0 | 1.0 | 0.00 | 0.00 | 0.00 | 31 | 1004.2 |
| 20260903170008 | 83 | 350 | 0.0 | 2.0 | 0.00 | 0.00 | 0.00 | 33 | 1004.3 |
| 20260903164504 | 82 | 350 | 0.0 | 1.0 | 0.00 | 0.00 | 0.00 | 36 | 1004.4 |
| 20260903163001 | 81 | 350 | 0.0 | 2.0 | 0.00 | 0.00 | 0.00 | 38 | 1004.2 |
| 20260903161558 | 80 | 351 | 0.0 | 0.0 | 0.00 | 0.00 | 0.00 | 38 | 1004.3 |
| 20260903160057 | 79 | 355 | 0.0 | 0.0 | 0.00 | 0.00 | 0.00 | 38 | 1004.4 |
| 20260903154551 | 77 | 355 | 0.0 | 0.0 | 0.00 | 0.00 | 0.00 | 42 | 1004.6 |
| 20260903153046 | 76 | 355 | 0.0 | 2.0 | 0.00 | 0.00 | 0.00 | 39 | 1004.5 |
| 20260903151541 | 73 | 355 | 0.0 | 1.0 | 0.00 | 0.00 | 0.00 | 43 | 1004.5 |
| 20260903150049 | 70 | 355 | 0.0 | 1.0 | 0.00 | 0.00 | 0.00 | 45 | 1004.7 |
| 20260903144541 | 68 | 355 | 0.0 | 0.0 | 0.00 | 0.00 | 0.00 | 62 | 1004.9 |
| 20260903143044 | 65 | 355 | 0.0 | 0.0 | 0.00 | 0.00 | 0.00 | 62 | 1004.8 |
| 20260903141536 | 62 | 355 | 0.0 | 0.0 | 0.00 | 0.00 | 0.00 | 68 | 1005.0 |
| 20260903140033 | 60 | 355 | 0.0 | 0.0 | 0.00 | 0.00 | 0.00 | 69 | 1005.0 |
| 20260903134543 | 59 | 355 | 0.0 | 0.0 | 0.00 | 0.00 | 0.00 | 68 | 1004.7 |
| 20260903133034 | 58 | 355 | 0.0 | 0.0 | 0.00 | 0.00 | 0.00 | 68 | 1004.5 |
| 20260903131528 | 57 | 355 | 0.0 | 0.0 | 0.00 | 0.00 | 0.00 | 71 | 1004.4 |
| 20260903130027 | 57 | 355 | 0.0 | 0.0 | 0.00 | 0.00 | 0.00 | 72 | 1004.4 |
| 20260903124525 | 58 | 355 | 0.0 | 0.0 | 0.00 | 0.00 | 0.00 | 72 | 1004.3 |
| 20260903123026 | 58 | 355 | 0.0 | 0.0 | 0.00 | 0.00 | 0.00 | 70 | 1004.2 |
| 20260903121526 | 59 | 355 | 0.0 | 0.0 | 0.00 | 0.00 | 0.00 | 68 | 1003.9 |
| 20260903120018 | 59 | 355 | 0.0 | 0.0 | 0.00 | 0.00 | 0.00 | 66 | 1003.6 |
| 20260903114520 | 59 | 355 | 0.0 | 0.0 | 0.00 | 0.00 | 0.00 | 67 | 1003.4 |
| 20260903113012 | 60 | 355 | 0.0 | 0.0 | 0.00 | 0.00 | 0.00 | 65 | 1003.1 |
| 20260903111510 | 60 | 355 | 0.0 | 0.0 | 0.00 | 0.00 | 0.00 | 63 | 1003.1 |
| 20260903110007 | 60 | 355 | 0.0 | 0.0 | 0.00 | 0.00 | 0.00 | 61 | 1002.9 |
| 20260903104505 | 61 | 355 | 0.0 | 0.0 | 0.00 | 0.00 | 0.00 | 60 | 1002.9 |
| 20260903103005 | 61 | 355 | 0.0 | 0.0 | 0.00 | 0.00 | 0.00 | 60 | 1002.9 |
| 20260903094608 | 62 | 355 | 0.0 | 0.0 | 0.00 | 0.00 | 0.00 | 57 | 1003.0 |
| 20260903093102 | 63 | 355 | 0.0 | 0.0 | 0.00 | 0.00 | 0.00 | 59 | 1002.8 |
| 20260903091552 | 64 | 355 | 0.0 | 0.0 | 0.00 | 0.00 | 0.00 | 58 | 1002.8 |
| 20260903090050 | 64 | 355 | 0.0 | 0.0 | 0.00 | 0.00 | 0.00 | 60 | 1002.9 |
| 20260903084549 | 64 | 355 | 0.0 | 0.0 | 0.00 | 0.00 | 0.00 | 55 | 1002.9 |
| 20260903083046 | 65 | 355 | 0.0 | 0.0 | 0.00 | 0.00 | 0.00 | 55 | 1002.9 |
| 20260903081547 | 65 | 355 | 0.0 | 0.0 | 0.00 | 0.00 | 0.00 | 54 | 1002.9 |
| 20260903080039 | 66 | 355 | 0.0 | 0.0 | 0.00 | 0.00 | 0.00 | 54 | 1002.8 |
| 20260903074537 | 67 | 355 | 0.0 | 1.0 | 0.00 | 0.00 | 0.00 | 51 | 1002.8 |
| 20260903073036 | 67 | 355 | 0.0 | 0.0 | 0.00 | 0.00 | 0.00 | 50 | 1002.8 |
| 20260903071534 | 68 | 355 | 0.0 | 1.0 | 0.00 | 0.00 | 0.00 | 52 | 1002.7 |
| 20260903070134 | 68 | 355 | 0.0 | 2.0 | 0.00 | 0.00 | 0.00 | 46 | 1002.7 |
| 20260903064529 | 69 | 355 | 0.0 | 3.0 | 0.00 | 0.00 | 0.00 | 42 | 1002.6 |
| 20260903063027 | 69 | 339 | 1.0 | 3.0 | 0.00 | 0.00 | 0.00 | 41 | 1002.7 |
| 20260903061526 | 69 | 322 | 0.0 | 2.0 | 0.00 | 0.00 | 0.00 | 37 | 1002.6 |
| 20260903060023 | 69 | 321 | 0.0 | 1.0 | 0.00 | 0.00 | 0.00 | 36 | 1002.4 |
| 20260903054522 | 68 | 321 | 0.0 | 1.0 | 0.00 | 0.00 | 0.00 | 40 | 1002.4 |
| 20260903053021 | 68 | 321 | 0.0 | 0.0 | 0.00 | 0.00 | 0.00 | 40 | 1002.2 |
| 20260903051521 | 69 | 321 | 0.0 | 0.0 | 0.00 | 0.00 | 0.00 | 37 | 1002.0 |
| 20260903050020 | 70 | 321 | 0.0 | 0.0 | 0.00 | 0.00 | 0.00 | 36 | 1002.0 |
| 20260903044519 | 72 | 321 | 0.0 | 0.0 | 0.00 | 0.00 | 0.00 | 35 | 1002.0 |
| 20260903043021 | 73 | 321 | 0.0 | 0.0 | 0.00 | 0.00 | 0.00 | 33 | 1001.9 |
| 20260903041518 | 74 | 321 | 0.0 | 0.0 | 0.00 | 0.00 | 0.00 | 30 | 1001.7 |
| 20260903040017 | 75 | 321 | 0.0 | 0.0 | 0.00 | 0.00 | 0.00 | 29 | 1001.9 |
| 20260903034517 | 75 | 321 | 0.0 | 0.0 | 0.00 | 0.00 | 0.00 | 29 | 1001.9 |
| 20260903033016 | 75 | 321 | 0.0 | 2.0 | 0.00 | 0.00 | 0.00 | 30 | 1001.7 |